Location: Newark
(54.6833°N, 25.2833°E)
Time: 13:42:22
(UTC+00:00)

Altair - Pass Details

Date: 16 November 2019
Orbit: 1502 x 1682 km, 47.2° (Epoch: 07 December)

Event Time Altitude Azimuth Distance (km) Brightness Sun altitude
Rises 03:16:18 0° 236° (SW) 4,631 - -21.9°
Reaches altitude 10° 03:19:26 10° 231° (SW) 3,650 - -21.4°
Exits shadow 03:20:58 16° 227° (SW) 3,193 8.8 -21.2°
Maximum altitude 03:28:01 47° 161° (SSE) 1,917 8.1 -20.2°
Drops below altitude 10° 03:36:46 10° 92° (E) 3,721 10.8 -18.9°
Sets 03:40:00 0° 87° (E) 4,727 11.7 -18.5°
